Terminal Aerodrome Forecast
Issued by NWS

Home | Current Version | Previous Version | Text Only | Print | Product List | Glossary Off
Versions: 1 2 3 4 5 6 7 8 9 10 11 12 13 14 15 16 17 18 19 20 21 22 23 24 25 26 27 28 29

000
FTUS45 KGGW 221100
TAFOLF
TAF
KOLF 221120Z 2212/2312 VRB05KT 3/4SM BR FEW090 SCT150
     FM221600 VRB05KT P6SM SCT150=

USA.gov is the U.S. government's official web portal to all federal, state and local government web resources and services.